Radiation Dose at Monitoring Post of Fukushima Daini Nuclear Power Station
Date,Time,MP-1(microSv/h),MP-2(microSv/h),MP-3(microSv/h),MP-4(microSv/h),MP-5(microSv/h),MP-6(microSv/h),MP-7(microSv/h),Wind Direction,Wind Velocity(m/s),Rain
2016/12/30,00:00,0.391,0.240,0.406,0.374,0.342,0.195,0.166,north-northwest,14.2,No
2016/12/30,00:10,0.391,0.242,0.405,0.376,0.342,0.195,0.167,north-northwest,12.6,No
2016/12/30,00:20,0.392,0.241,0.404,0.375,0.341,0.195,0.166,north-northwest,11.0,No
2016/12/30,00:30,0.392,0.241,0.406,0.376,0.341,0.195,0.167,north-northwest,7.3,No
2016/12/30,00:40,0.391,0.240,0.406,0.374,0.341,0.195,0.166,north-northwest,5.5,No
2016/12/30,00:50,0.391,0.242,0.404,0.375,0.343,0.195,0.167,north,7.4,No
2016/12/30,01:00,0.393,0.241,0.405,0.375,0.341,0.194,0.166,north-northwest,7.3,Yes
2016/12/30,01:10,0.393,0.241,0.405,0.374,0.341,0.194,0.167,northwest,4.7,No
2016/12/30,01:20,0.391,0.241,0.404,0.373,0.342,0.195,0.167,north-northwest,1.4,No
2016/12/30,01:30,0.392,0.242,0.404,0.372,0.342,0.194,0.167,north,3.0,No
2016/12/30,01:40,0.393,0.240,0.404,0.376,0.341,0.196,0.166,north,4.5,No
2016/12/30,01:50,0.392,0.241,0.405,0.375,0.341,0.195,0.166,north,5.3,No
2016/12/30,02:00,0.391,0.242,0.404,0.374,0.342,0.195,0.166,north,5.5,No
2016/12/30,02:10,0.390,0.241,0.403,0.374,0.342,0.194,0.166,north,6.1,No
2016/12/30,02:20,0.392,0.241,0.404,0.374,0.343,0.194,0.166,north,7.1,No
2016/12/30,02:30,0.391,0.239,0.404,0.374,0.340,0.195,0.166,north,6.7,No
2016/12/30,02:40,0.391,0.240,0.404,0.373,0.343,0.195,0.166,north,5.5,No
2016/12/30,02:50,0.391,0.242,0.404,0.374,0.340,0.194,0.165,north,3.9,No
2016/12/30,03:00,0.392,0.242,0.404,0.374,0.342,0.194,0.167,north,4.4,No
2016/12/30,03:10,0.391,0.240,0.404,0.373,0.342,0.194,0.167,north,4.4,No
2016/12/30,03:20,0.390,0.242,0.403,0.376,0.341,0.194,0.166,north-northwest,3.0,No
2016/12/30,03:30,0.390,0.241,0.403,0.374,0.341,0.194,0.166,north-northwest,1.9,No
2016/12/30,03:40,0.390,0.240,0.405,0.374,0.342,0.194,0.166,north-northwest,2.5,No
2016/12/30,03:50,0.393,0.240,0.404,0.374,0.341,0.195,0.166,north,1.8,No
2016/12/30,04:00,0.391,0.241,0.404,0.374,0.341,0.193,0.167,northwest,1.9,No
2016/12/30,04:10,0.391,0.239,0.403,0.375,0.341,0.194,0.167,west-northwest,0.6,No
2016/12/30,04:20,0.390,0.241,0.403,0.374,0.341,0.194,0.167,west-northwest,1.1,No
2016/12/30,04:30,0.392,0.241,0.404,0.374,0.341,0.195,0.165,northwest,1.0,No
2016/12/30,04:40,0.390,0.242,0.404,0.373,0.342,0.195,0.166,west,0.6,No
2016/12/30,04:50,0.390,0.241,0.404,0.375,0.341,0.195,0.166,-,CALM,No
2016/12/30,05:00,0.391,0.242,0.403,0.375,0.341,0.195,0.167,north-northwest,0.6,No
2016/12/30,05:10,0.391,0.239,0.404,0.373,0.342,0.194,0.166,northwest,0.6,No
2016/12/30,05:20,0.391,0.240,0.404,0.374,0.342,0.194,0.167,-,CALM,No
2016/12/30,05:30,0.390,0.242,0.404,0.375,0.340,0.194,0.166,south,0.8,No
2016/12/30,05:40,0.391,0.242,0.402,0.375,0.341,0.194,0.167,south,1.1,No
2016/12/30,05:50,0.391,0.241,0.403,0.374,0.341,0.194,0.165,southwest,0.6,No
2016/12/30,06:00,0.391,0.242,0.404,0.374,0.342,0.194,0.166,north-northeast,1.7,No
2016/12/30,06:10,0.391,0.242,0.402,0.374,0.342,0.193,0.166,north-northeast,2.2,No
2016/12/30,06:20,0.391,0.241,0.403,0.374,0.342,0.194,0.167,north-northeast,3.1,No
2016/12/30,06:30,0.392,0.242,0.403,0.373,0.341,0.194,0.167,north,2.3,No
2016/12/30,06:40,0.390,0.242,0.403,0.373,0.341,0.193,0.167,north,2.8,No
2016/12/30,06:50,0.391,0.242,0.403,0.373,0.341,0.193,0.165,north,3.9,No
2016/12/30,07:00,0.390,0.243,0.403,0.373,0.341,0.195,0.165,north,4.9,No
2016/12/30,07:10,0.392,0.240,0.404,0.374,0.342,0.193,0.166,north,5.8,No
2016/12/30,07:20,0.391,0.241,0.405,0.374,0.341,0.193,0.166,north,7.8,No
2016/12/30,07:30,0.390,0.241,0.403,0.372,0.340,0.195,0.166,north,7.5,No
2016/12/30,07:40,0.391,0.242,0.403,0.373,0.341,0.194,0.166,north-northwest,7.8,No
2016/12/30,07:50,0.391,0.241,0.404,0.374,0.340,0.193,0.166,north-northwest,7.6,No
2016/12/30,08:00,0.389,0.240,0.404,0.375,0.341,0.194,0.166,north-northwest,8.3,No
2016/12/30,08:10,0.392,0.239,0.405,0.375,0.340,0.193,0.165,north-northwest,8.1,No
2016/12/30,08:20,0.391,0.240,0.404,0.373,0.339,0.194,0.165,northwest,7.5,No
2016/12/30,08:30,0.392,0.239,0.403,0.373,0.341,0.193,0.164,north-northwest,8.3,No
2016/12/30,08:40,0.393,0.240,0.404,0.372,0.341,0.192,0.165,west-northwest,5.6,No
2016/12/30,08:50,0.391,0.241,0.405,0.371,0.340,0.192,0.164,northwest,4.8,No
2016/12/30,09:00,0.391,0.239,0.405,0.372,0.340,0.192,0.165,north-northwest,5.6,No
2016/12/30,09:10,0.389,0.239,0.404,0.373,0.340,0.193,0.165,northwest,5.4,No
2016/12/30,09:20,0.391,0.239,0.402,0.372,0.341,0.193,0.165,northwest,7.1,No
2016/12/30,09:30,0.390,0.240,0.403,0.374,0.341,0.193,0.166,north-northwest,7.7,No
2016/12/30,09:40,0.389,0.240,0.404,0.371,0.340,0.193,0.165,northwest,7.5,No
2016/12/30,09:50,0.389,0.239,0.403,0.372,0.341,0.193,0.164,northwest,7.1,No
2016/12/30,10:00,0.389,0.239,0.401,0.375,0.341,0.194,0.165,northwest,7.8,No
2016/12/30,10:10,0.389,0.239,0.404,0.372,0.340,0.194,0.165,northwest,8.2,No
2016/12/30,10:20,0.388,0.239,0.402,0.374,0.341,0.195,0.166,north-northwest,8.6,No
2016/12/30,10:30,0.388,0.239,0.403,0.373,0.340,0.194,0.166,north-northwest,6.1,No
2016/12/30,10:40,0.390,0.239,0.401,0.371,0.339,0.193,0.165,north-northwest,7.5,No
2016/12/30,10:50,0.389,0.240,0.403,0.373,0.341,0.192,0.165,northwest,8.7,No
2016/12/30,11:00,0.390,0.240,0.402,0.372,0.340,0.194,0.165,northwest,7.7,No
2016/12/30,11:10,0.389,0.239,0.403,0.372,0.338,0.193,0.164,northwest,7.8,No
2016/12/30,11:20,0.389,0.240,0.403,0.376,0.341,0.195,0.166,northwest,7.0,No
2016/12/30,11:30,0.391,0.240,0.404,0.372,0.339,0.193,0.166,north-northwest,6.7,No
2016/12/30,11:40,0.391,0.240,0.402,0.374,0.343,0.193,0.166,north-northwest,7.1,No
2016/12/30,11:50,0.389,0.239,0.402,0.373,0.341,0.193,0.164,northwest,4.0,No
2016/12/30,12:00,0.390,0.239,0.403,0.372,0.339,0.193,0.166,west-northwest,7.0,No
2016/12/30,12:10,0.390,0.241,0.400,0.374,0.342,0.193,0.166,west-northwest,5.8,No
2016/12/30,12:20,0.388,0.239,0.400,0.370,0.340,0.193,0.165,northwest,6.2,No
2016/12/30,12:30,0.389,0.239,0.402,0.374,0.339,0.194,0.165,northwest,6.4,No
2016/12/30,12:40,0.389,0.241,0.401,0.371,0.340,0.193,0.165,west,8.0,No
2016/12/30,12:50,0.389,0.239,0.401,0.372,0.341,0.193,0.165,west,6.9,No
2016/12/30,13:00,0.391,0.240,0.400,0.374,0.341,0.194,0.165,west-northwest,6.7,No
2016/12/30,13:10,0.389,0.240,0.403,0.373,0.342,0.193,0.166,west-northwest,7.3,No
2016/12/30,13:20,0.390,0.240,0.401,0.374,0.342,0.193,0.167,west-northwest,6.7,No
2016/12/30,13:30,0.388,0.239,0.402,0.370,0.341,0.193,0.165,west-northwest,5.2,No
2016/12/30,13:40,0.389,0.240,0.403,0.375,0.343,0.193,0.165,west,8.2,No
2016/12/30,13:50,0.390,0.239,0.401,0.371,0.341,0.193,0.165,west-northwest,7.5,No
2016/12/30,14:00,0.389,0.239,0.403,0.373,0.340,0.192,0.165,west-northwest,6.5,No
2016/12/30,14:10,0.389,0.240,0.402,0.373,0.343,0.192,0.165,northwest,4.5,No
2016/12/30,14:20,0.390,0.240,0.403,0.373,0.340,0.193,0.166,northwest,5.3,No
2016/12/30,14:30,0.390,0.240,0.403,0.374,0.342,0.193,0.165,northwest,5.9,No
2016/12/30,14:40,0.390,0.240,0.402,0.373,0.341,0.193,0.166,northwest,5.9,No
2016/12/30,14:50,0.390,0.239,0.401,0.375,0.340,0.194,0.166,northwest,5.6,No
2016/12/30,15:00,0.391,0.240,0.403,0.375,0.339,0.194,0.165,northwest,5.4,No
2016/12/30,15:10,0.390,0.239,0.403,0.372,0.342,0.192,0.166,northwest,5.4,No
2016/12/30,15:20,0.390,0.240,0.402,0.374,0.340,0.193,0.165,west-northwest,7.2,No
2016/12/30,15:30,0.390,0.240,0.404,0.374,0.341,0.193,0.165,north-northwest,3.9,No
2016/12/30,15:40,0.390,0.240,0.403,0.374,0.343,0.194,0.166,northwest,2.2,No
2016/12/30,15:50,0.391,0.241,0.403,0.375,0.341,0.194,0.166,northwest,3.5,No
2016/12/30,16:00,0.388,0.240,0.404,0.376,0.341,0.194,0.166,northwest,2.2,No
2016/12/30,16:10,0.391,0.242,0.405,0.373,0.341,0.193,0.165,west,4.1,No
2016/12/30,16:20,0.390,0.240,0.403,0.372,0.341,0.194,0.165,west-northwest,5.3,No
2016/12/30,16:30,0.391,0.239,0.402,0.374,0.340,0.193,0.165,west-northwest,3.6,No
2016/12/30,16:40,0.390,0.240,0.404,0.374,0.341,0.193,0.165,west,2.8,No
2016/12/30,16:50,0.390,0.239,0.403,0.373,0.340,0.193,0.165,west-northwest,1.3,No
2016/12/30,17:00,0.391,0.241,0.402,0.374,0.340,0.193,0.165,west,1.2,No
2016/12/30,17:10,0.390,0.240,0.402,0.376,0.341,0.193,0.165,west-southwest,1.7,No
2016/12/30,17:20,0.390,0.240,0.403,0.374,0.340,0.194,0.165,west,1.3,No
2016/12/30,17:30,0.391,0.239,0.403,0.373,0.340,0.194,0.166,west,1.1,No
2016/12/30,17:40,0.390,0.239,0.404,0.375,0.342,0.193,0.165,west-northwest,1.7,No
2016/12/30,17:50,0.390,0.239,0.401,0.374,0.341,0.193,0.166,west,1.6,No
2016/12/30,18:00,0.390,0.239,0.402,0.374,0.342,0.193,0.166,northwest,0.8,No
2016/12/30,18:10,0.391,0.240,0.402,0.374,0.340,0.193,0.166,-,CALM,No
2016/12/30,18:20,0.391,0.240,0.403,0.374,0.341,0.193,0.166,southwest,1.1,No
2016/12/30,18:30,0.390,0.239,0.403,0.376,0.340,0.193,0.166,south-southwest,0.7,No
2016/12/30,18:40,0.390,0.239,0.403,0.373,0.339,0.194,0.165,south-southwest,1.7,No
2016/12/30,18:50,0.390,0.240,0.403,0.373,0.340,0.194,0.165,-,CALM,No
2016/12/30,19:00,0.390,0.240,0.404,0.373,0.339,0.193,0.166,-,CALM,No
2016/12/30,19:10,0.392,0.241,0.403,0.374,0.340,0.193,0.165,south-southwest,0.9,No
2016/12/30,19:20,0.390,0.239,0.402,0.375,0.340,0.194,0.164,south-southwest,2.2,No
2016/12/30,19:30,0.390,0.240,0.403,0.374,0.340,0.194,0.166,southwest,1.9,No
2016/12/30,19:40,0.392,0.240,0.403,0.374,0.340,0.193,0.165,south-southwest,1.7,No
2016/12/30,19:50,0.392,0.240,0.404,0.376,0.341,0.193,0.165,south-southwest,1.6,No
2016/12/30,20:00,0.390,0.240,0.403,0.375,0.341,0.194,0.166,west-southwest,1.2,No
2016/12/30,20:10,0.390,0.240,0.403,0.373,0.340,0.193,0.166,west-southwest,2.5,No
2016/12/30,20:20,0.390,0.240,0.403,0.374,0.340,0.193,0.166,west,3.0,No
2016/12/30,20:30,0.392,0.239,0.404,0.373,0.340,0.194,0.167,west,3.5,No
2016/12/30,20:40,0.390,0.241,0.403,0.375,0.341,0.194,0.166,west,4.5,No
2016/12/30,20:50,0.392,0.240,0.404,0.373,0.340,0.194,0.166,west-southwest,2.4,No
2016/12/30,21:00,0.390,0.239,0.403,0.373,0.343,0.194,0.167,west-southwest,3.1,No
2016/12/30,21:10,0.389,0.239,0.402,0.374,0.340,0.194,0.166,west-southwest,1.8,No
2016/12/30,21:20,0.390,0.240,0.403,0.373,0.340,0.194,0.166,southwest,3.0,No
2016/12/30,21:30,0.392,0.239,0.404,0.375,0.341,0.194,0.165,southwest,4.7,No
2016/12/30,21:40,0.392,0.241,0.402,0.376,0.341,0.194,0.165,southwest,3.6,No
2016/12/30,21:50,0.389,0.242,0.403,0.374,0.340,0.193,0.166,southwest,4.5,No
2016/12/30,22:00,0.390,0.240,0.402,0.372,0.340,0.194,0.166,south-southwest,5.0,No
2016/12/30,22:10,0.390,0.241,0.404,0.376,0.340,0.193,0.165,southwest,4.2,No
2016/12/30,22:20,0.391,0.240,0.404,0.374,0.341,0.194,0.165,south-southwest,5.3,No
2016/12/30,22:30,0.390,0.240,0.403,0.373,0.340,0.195,0.167,south-southwest,5.3,No
2016/12/30,22:40,0.390,0.239,0.402,0.374,0.341,0.194,0.165,south-southwest,4.9,No
2016/12/30,22:50,0.390,0.240,0.404,0.375,0.341,0.194,0.166,southwest,5.0,No
2016/12/30,23:00,0.390,0.241,0.403,0.375,0.340,0.193,0.166,south-southwest,5.0,No
2016/12/30,23:10,0.391,0.239,0.405,0.374,0.339,0.194,0.166,south-southwest,6.1,No
2016/12/30,23:20,0.390,0.239,0.404,0.373,0.340,0.193,0.166,south-southwest,5.6,No
2016/12/30,23:30,0.391,0.240,0.401,0.373,0.341,0.194,0.165,southwest,5.3,No
2016/12/30,23:40,0.389,0.240,0.405,0.373,0.341,0.193,0.166,southwest,5.7,No
2016/12/30,23:50,0.391,0.240,0.403,0.374,0.340,0.194,0.166,southwest,5.7,No
